Location: Lanoux
(43.1180°N, 1.4255°E)
Time: 07:19:50
(UTC+00:00)

USA 59 Rocket - Pass Details

Date: 13 December 2025
Orbit: 369 x 1675 km, 63.3° (Epoch: 13 January)

Event Time Altitude Azimuth Distance (km) Brightness Sun altitude
Rises 18:43:52 0° 194° (SSW) 2,918 3.8 -25.4°
Reaches altitude 10° 18:46:36 10° 183° (S) 1,820 2.6 -25.9°
Enters shadow 18:46:54 12° 181° (S) 1,703 2.4 -26.0°
